Regional Weather Roundup
Issued by NWS Jackson, KY

Home | Current Version | Previous Version | Graphics & Text | Print | Product List | Glossary On
Versions: 1 2 3 4 5 6 7 8 9 10 11 12 13 14 15 16 17 18 19 20 21 22 23 24 25 26 27 28 29 30 31 32 33 34 35 36 37 38 39 40 41 42 43 44 45 46 47 48 49 50
000
ASUS43 KJKL 020710
RWRJKL

EAST KENTUCKY HOURLY WEATHER ROUNDUP
NATIONAL WEATHER SERVICE JACKSON KY
300 AM EDT SAT AUG 02 2014

NOTE: "FAIR" INDICATES FEW OR NO CLOUDS BELOW 12,000 FEET WITH
NO SIGNIFICANT WEATHER AND/OR OBSTRUCTIONS TO VISIBILITY.

* THESE REPORTS ARE NOT UNDER NWS QUALITY CONTROL AND MAY NOT
  REPORT WEATHER SUCH AS PRECIPITATION AND FOG.

KYZ079-080-083-085-087-088-110-112-115-119-120-020800
...EASTERN KENTUCKY...

CITY           SKY/WX    TMP DP  RH WIND       PRES   REMARKS
JACKSON        CLEAR     67  63  87 SE5       30.08F
LONDON         CLEAR     67  63  87 CALM      30.08F
SOMERSET*      CLEAR     64  64 100 CALM      30.08F FOG
MONTICELLO*    PTCLDY    65  65 100 CALM      30.09S FOG
WILLIAMSBURG*    N/A     66  66 100 CALM      30.08F
MIDDLESBORO*   CLOUDY    70  60  71 S3        30.10S
HARLAN APT*    PTSUNNY   66  61  82 MISG      30.11F
HAZARD APT*    PTSUNNY   66  66 100 CALM      30.08F
BLACK MTN*       N/A     57  55  94 S2          N/A
PIKEVILLE APT* PTCLDY    64  57  77 SE5       30.09F
BIG SANDY*     PTSUNNY   66  60  80 SE5       30.08F
MOREHEAD APT*  CLOUDY    66  64  94 CALM      30.08F
$$

KYZ035-036-041-042-044-050-067-078-099-020800
...CENTRAL KENTUCKY...

CITY           SKY/WX    TMP DP  RH WIND       PRES   REMARKS
MT STERLING*   CLEAR     63  63 100 CALM      30.08S FOG
FLEMING/MASON* PTCLDY    64  63  94 CALM      30.07F
DANVILLE*      CLEAR     63  61  94 CALM      30.08F
RICHMOND*      PTCLDY    66  63  88 CALM      30.06F
LEXINGTON      CLOUDY    69  61  75 CALM      30.07S
FRANKFORT      CLEAR     64  61  90 CALM      30.05F
$$

KYZ091>093-OHZ055-061-077-WVZ005-015-034-035-042-020800
...SOUTHERN OHIO/WEST VIRGINIA...

CITY           SKY/WX    TMP DP  RH WIND       PRES   REMARKS
COVINGTON      MOCLDY    70  62  76 CALM      30.07F
COLUMBUS       MOCLDY    70  62  76 CALM      30.07S
DAYTON         TSTM      66  62  87 W13G18    30.09F
WILMINGTON     CLEAR     62  60  93 CALM      30.07F FOG
HUNTINGTON     PTCLDY    66  62  87 SE5       30.06F
CHARLESTON     PTCLDY    63  61  93 CALM      30.09F
PINEVILLE*     CLEAR     59  59 100 MISG      30.18F FOG
BECKLEY        PTCLDY    61  54  77 SE6       30.16F
BLUEFIELD      CLOUDY    62  57  83 VRB5      30.18F
$$

VAZ002-007-008-TNZ017-027-036-066-071-020800
...SOUTHWEST VIRGINIA/EAST TENNESSEE...

CITY           SKY/WX    TMP DP  RH WIND       PRES   REMARKS
WISE*          MOCLDY    63  55  77 S7        30.16F
JONESVILLE*      N/A     63  61  94 CALM      30.13F
ABINGDON*      PTCLDY    63  59  86 E7        30.15F
BRISTOL        MOCLDY    62  57  83 CALM      30.11F
KNOXVILLE      LGT RAIN  71  67  87 CALM      30.07S
OAK RIDGE      LGT RAIN  69  67  93 CALM      30.09S
CROSSVILLE     CLOUDY    68  64  87 CALM      30.11F
NASHVILLE      CLOUDY    73  67  81 CALM      30.04F
$$

...KEY TO REMARKS...
VSB - VISIBILITY IN MILES
WCI - WIND CHILL INDEX
HX  - HEAT INDEX

$$


USA.gov is the U.S. government's official web portal to all federal, state and local government web resources and services.